QPF
0.01 0.02 0.02 0.03 0.03 0.03 0.05 0.07 0.08 0.06 0.04 0.05 0.04 0.04 0.06 0.08 0.06 0.06 0.07 0.06 0.04 0.04 0.03 0.01 0.00 0.00 0.00 0.00 0.00 0.00 0.00 0.00 0.00 0.00 0.00 0.00 0.00 0.00 0.00 0.00 0.00 0.00 0.00 0.00
0.01 0.01 0.01 0.02 0.01 0.02 0.04 0.07 0.09 0.10 0.08 0.07 0.06 0.05 0.05 0.07 0.06 0.04 0.03 0.02 0.04 0.04 0.03 0.01 0.01 0.00 0.00 0.00 0.00 0.00 0.00 0.00 0.00 0.00 0.00 0.00 0.00 0.00 0.00 0.00 0.00 0.00 0.00 0.00
0.01 0.01 0.01 0.01 0.01 0.03 0.04 0.06 0.08 0.10 0.12 0.10 0.08 0.09 0.07 0.07 0.06 0.04 0.03 0.01 0.02 0.03 0.02 0.01 0.01 0.01 0.00 0.00 0.00 0.00 0.00 0.00 0.00 0.00 0.00 0.00 0.00 0.00 0.00 0.00 0.00 0.00 0.00 0.00
0.01 0.01 0.00 0.01 0.01 0.02 0.04 0.05 0.06 0.09 0.13 0.12 0.10 0.10 0.07 0.08 0.07 0.04 0.02 0.01 0.02 0.03 0.03 0.01 0.01 0.01 0.00 0.00 0.00 0.00 0.00 0.00 0.00 0.00 0.00 0.00 0.00 0.00 0.00 0.00 0.00 0.00 0.00 0.00
0.01 0.01 0.01 0.02 0.01 0.01 0.03 0.04 0.05 0.07 0.10 0.10 0.07 0.05 0.05 0.06 0.05 0.02 0.01 0.01 0.01 0.02 0.02 0.01 0.01 0.01 0.00 0.00 0.00 0.00 0.00 0.00 0.00 0.00 0.00 0.00 0.00 0.00 0.00 0.00 0.00 0.00 0.00 0.00
0.01 0.01 0.01 0.02 0.01 0.01 0.03 0.05 0.08 0.09 0.08 0.08 0.05 0.03 0.02 0.03 0.02 0.01 0.01 0.01 0.01 0.01 0.02 0.02 0.02 0.01 0.00 0.00 0.01 0.00 0.00 0.00 0.00 0.00 0.00 0.00 0.00 0.00 0.00 0.00 0.00 0.00 0.00 0.00
0.01 0.01 0.01 0.01 0.02 0.02 0.03 0.06 0.08 0.10 0.08 0.05 0.04 0.02 0.01 0.01 0.01 0.00 0.00 0.00 0.01 0.01 0.01 0.01 0.01 0.00 0.00 0.00 0.00 0.00 0.00 0.00 0.00 0.00 0.00 0.00 0.00 0.00 0.00 0.00 0.00 0.00 0.00 0.00
0.02 0.02 0.02 0.02 0.02 0.03 0.03 0.04 0.05 0.06 0.05 0.04 0.03 0.03 0.01 0.00 0.01 0.01 0.00 0.01 0.01 0.01 0.01 0.01 0.01 0.01 0.01 0.00 0.00 0.00 0.00 0.00 0.00 0.00 0.00 0.00 0.00 0.00 0.00 0.00 0.00 0.00 0.00 0.00
0.03 0.03 0.02 0.01 0.01 0.02 0.04 0.04 0.05 0.05 0.04 0.04 0.03 0.02 0.01 0.01 0.00 0.01 0.01 0.01 0.02 0.02 0.02 0.02 0.01 0.01 0.01 0.01 0.00 0.00 0.00 0.00 0.00 0.00 0.00 0.00 0.00 0.00 0.00 0.00 0.00 0.00 0.00 0.00
0.02 0.05 0.02 0.01 0.02 0.03 0.04 0.06 0.09 0.07 0.06 0.04 0.02 0.02 0.02 0.02 0.01 0.01 0.01 0.01 0.01 0.02 0.02 0.02 0.02 0.02 0.02 0.01 0.01 0.00 0.00 0.00 0.00 0.00 0.00 0.00 0.00 0.00 0.00 0.00 0.00 0.00 0.00 0.00
0.02 0.04 0.03 0.02 0.03 0.03 0.04 0.04 0.06 0.07 0.06 0.08 0.05 0.03 0.02 0.02 0.02 0.02 0.01 0.02 0.02 0.02 0.01 0.01 0.02 0.02 0.02 0.01 0.01 0.00 0.00 0.00 0.00 0.00 0.00 0.00 0.00 0.00 0.00 0.00 0.00 0.00 0.00 0.00
0.02 0.03 0.03 0.02 0.02 0.02 0.03 0.04 0.03 0.05 0.07 0.07 0.09 0.04 0.01 0.02 0.02 0.02 0.02 0.02 0.02 0.02 0.01 0.02 0.02 0.02 0.01 0.01 0.01 0.00 0.00 0.00 0.00 0.00 0.00 0.00 0.00 0.00 0.00 0.00 0.00 0.00 0.00 0.00
0.02 0.03 0.04 0.05 0.03 0.02 0.02 0.02 0.03 0.04 0.08 0.09 0.13 0.07 0.01 0.02 0.02 0.02 0.02 0.02 0.03 0.02 0.02 0.01 0.01 0.01 0.01 0.01 0.00 0.00 0.00 0.00 0.00 0.00 0.00 0.00 0.00 0.00 0.00 0.00 0.00 0.00 0.00 0.00
0.02 0.03 0.06 0.06 0.04 0.02 0.02 0.02 0.03 0.04 0.07 0.08 0.08 0.04 0.02 0.02 0.02 0.02 0.04 0.04 0.04 0.03 0.02 0.01 0.00 0.00 0.00 0.00 0.00 0.00 0.00 0.00 0.00 0.00 0.00 0.00 0.00 0.00 0.00 0.00 0.00 0.00 0.00 0.00
0.01 0.03 0.05 0.05 0.03 0.02 0.02 0.03 0.04 0.05 0.05 0.05 0.05 0.03 0.02 0.02 0.02 0.01 0.03 0.05 0.04 0.03 0.02 0.01 0.00 0.00 0.00 0.00 0.00 0.00 0.00 0.00 0.00 0.00 0.00 0.00 0.00 0.00 0.00 0.00 0.00 0.00 0.00 0.00
0.01 0.02 0.03 0.04 0.02 0.02 0.01 0.01 0.03 0.03 0.02 0.02 0.02 0.01 0.01 0.02 0.02 0.01 0.01 0.03 0.03 0.02 0.01 0.01 0.00 0.00 0.01 0.01 0.01 0.00 0.00 0.00 0.00 0.00 0.00 0.00 0.00 0.00 0.00 0.00 0.00 0.00 0.00 0.00
0.02 0.02 0.03 0.02 0.02 0.02 0.01 0.01 0.01 0.01 0.01 0.01 0.01 0.01 0.01 0.01 0.02 0.01 0.01 0.01 0.01 0.01 0.01 0.01 0.00 0.00 0.00 0.01 0.01 0.00 0.00 0.00 0.00 0.00 0.00 0.00 0.00 0.00 0.00 0.00 0.00 0.00 0.00 0.00
0.02 0.03 0.03 0.03 0.04 0.02 0.01 0.01 0.00 0.01 0.00 0.01 0.01 0.01 0.01 0.01 0.01 0.01 0.01 0.01 0.01 0.00 0.01 0.01 0.00 0.00 0.00 0.01 0.01 0.01 0.01 0.00 0.00 0.00 0.00 0.00 0.00 0.00 0.00 0.00 0.00 0.00 0.00 0.00
0.02 0.02 0.03 0.04 0.04 0.01 0.01 0.01 0.01 0.01 0.00 0.00 0.00 0.01 0.00 0.00 0.00 0.00 0.01 0.00 0.00 0.00 0.01 0.01 0.00 0.00 0.00 0.00 0.01 0.00 0.00 0.00 0.00 0.00 0.00 0.00 0.00 0.00 0.00 0.00 0.00 0.00 0.00 0.00
0.03 0.03 0.03 0.03 0.03 0.02 0.01 0.01 0.01 0.01 0.00 0.00 0.00 0.00 0.00 0.00 0.00 0.00 0.00 0.00 0.00 0.00 0.00 0.00 0.01 0.01 0.00 0.00 0.01 0.00 0.00 0.00 0.00 0.00 0.00 0.00 0.00 0.00 0.00 0.00 0.00 0.00 0.00 0.00
0.02 0.03 0.02 0.02 0.02 0.01 0.00 0.01 0.01 0.01 0.01 0.00 0.00 0.00 0.00 0.00 0.00 0.00 0.00 0.00 0.00 0.00 0.00 0.00 0.01 0.01 0.00 0.00 0.00 0.00 0.00 0.00 0.00 0.00 0.00 0.00 0.00 0.00 0.00 0.00 0.00 0.00 0.00 0.00
0.01 0.01 0.00 0.01 0.01 0.01 0.00 0.01 0.01 0.00 0.00 0.00 0.00 0.00 0.00 0.00 0.00 0.00 0.00 0.00 0.00 0.00 0.00 0.00 0.01 0.00 0.00 0.00 0.00 0.00 0.00 0.00 0.00 0.00 0.00 0.00 0.00 0.00 0.00 0.00 0.00 0.00 0.00 0.00
0.01 0.01 0.00 0.00 0.01 0.01 0.01 0.01 0.01 0.00 0.00 0.00 0.00 0.00 0.00 0.00 0.00 0.00 0.00 0.00 0.00 0.00 0.00 0.01 0.01 0.01 0.00 0.00 0.00 0.00 0.00 0.00 0.00 0.00 0.00 0.00 0.00 0.00 0.00 0.00 0.00 0.00 0.00 0.00
0.01 0.01 0.01 0.00 0.01 0.01 0.00 0.00 0.00 0.01 0.00 0.00 0.00 0.00 0.00 0.00 0.00 0.00 0.00 0.00 0.00 0.00 0.00 0.00 0.01 0.01 0.01 0.01 0.00 0.00 0.00 0.00 0.00 0.00 0.00 0.00 0.00 0.00 0.00 0.00 0.00 0.00 0.00 0.00
0.01 0.01 0.01 0.01 0.00 0.00 0.00 0.00 0.00 0.00 0.00 0.00 0.00 0.00 0.00 0.00 0.00 0.00 0.00 0.00 0.00 0.00 0.00 0.00 0.00 0.00 0.01 0.01 0.01 0.01 0.01 0.01 0.00 0.00 0.00 0.00 0.00 0.00 0.00 0.00 0.00 0.00 0.00 0.00
0.01 0.01 0.00 0.00 0.00 0.00 0.00 0.00 0.00 0.00 0.00 0.00 0.00 0.00 0.00 0.00 0.00 0.00 0.00 0.00 0.00 0.00 0.00 0.00 0.00 0.00 0.00 0.01 0.02 0.02 0.02 0.01 0.01 0.00 0.00 0.00 0.00 0.00 0.00 0.00 0.00 0.00 0.00 0.00
MSLP
1015.34 1015.94 1016.39 1016.64 1016.72 1016.66 1016.50 1016.30 1016.09 1015.92 1015.78 1015.67 1015.58 1015.49 1015.41 1015.32 1015.22 1015.14 1015.07 1015.01 1014.95 1014.88 1014.80 1014.68 1014.55 1014.41 1014.29 1014.23 1014.26 1014.42 1014.71 1015.13 1015.64 1016.18 1016.72 1017.18 1017.54 1017.77 1017.86 1017.84 1017.74 1017.60 1017.47 1017.34
1015.77 1016.23 1016.54 1016.69 1016.72 1016.67 1016.59 1016.52 1016.48 1016.47 1016.47 1016.44 1016.38 1016.25 1016.07 1015.84 1015.59 1015.35 1015.16 1015.00 1014.89 1014.81 1014.74 1014.65 1014.54 1014.42 1014.31 1014.25 1014.27 1014.42 1014.71 1015.14 1015.67 1016.26 1016.84 1017.36 1017.77 1018.03 1018.15 1018.13 1018.03 1017.87 1017.71 1017.56
1015.98 1016.27 1016.42 1016.46 1016.45 1016.44 1016.47 1016.58 1016.74 1016.92 1017.08 1017.17 1017.14 1016.98 1016.69 1016.32 1015.91 1015.52 1015.19 1014.95 1014.79 1014.71 1014.66 1014.61 1014.55 1014.46 1014.37 1014.32 1014.33 1014.47 1014.74 1015.17 1015.71 1016.32 1016.95 1017.51 1017.97 1018.27 1018.41 1018.42 1018.31 1018.15 1017.97 1017.81
1016.00 1016.10 1016.09 1016.03 1016.01 1016.06 1016.24 1016.53 1016.91 1017.30 1017.63 1017.82 1017.82 1017.61 1017.22 1016.70 1016.12 1015.58 1015.13 1014.80 1014.61 1014.54 1014.53 1014.54 1014.55 1014.52 1014.47 1014.43 1014.44 1014.56 1014.81 1015.22 1015.75 1016.37 1017.01 1017.61 1018.11 1018.46 1018.64 1018.67 1018.59 1018.43 1018.25 1018.09
1015.89 1015.81 1015.67 1015.55 1015.53 1015.68 1016.01 1016.50 1017.09 1017.66 1018.13 1018.39 1018.38 1018.10 1017.59 1016.91 1016.17 1015.48 1014.92 1014.53 1014.33 1014.29 1014.35 1014.46 1014.55 1014.59 1014.60 1014.58 1014.59 1014.69 1014.91 1015.28 1015.78 1016.39 1017.04 1017.66 1018.19 1018.58 1018.81 1018.89 1018.84 1018.71 1018.54 1018.38
1015.75 1015.53 1015.30 1015.16 1015.19 1015.44 1015.93 1016.60 1017.35 1018.06 1018.60 1018.87 1018.81 1018.42 1017.76 1016.91 1016.02 1015.20 1014.55 1014.14 1013.96 1013.98 1014.14 1014.35 1014.55 1014.69 1014.76 1014.78 1014.79 1014.86 1015.04 1015.36 1015.82 1016.39 1017.02 1017.65 1018.20 1018.64 1018.92 1019.05 1019.05 1018.96 1018.83 1018.68
1015.66 1015.35 1015.09 1014.98 1015.09 1015.46 1016.09 1016.89 1017.75 1018.52 1019.06 1019.27 1019.10 1018.56 1017.72 1016.71 1015.67 1014.74 1014.04 1013.63 1013.50 1013.62 1013.90 1014.24 1014.57 1014.81 1014.95 1015.01 1015.02 1015.06 1015.19 1015.45 1015.84 1016.36 1016.96 1017.58 1018.15 1018.62 1018.95 1019.14 1019.20 1019.16 1019.08 1018.97
1015.65 1015.33 1015.10 1015.06 1015.28 1015.77 1016.50 1017.38 1018.27 1019.02 1019.48 1019.56 1019.22 1018.50 1017.48 1016.30 1015.15 1014.15 1013.43 1013.05 1013.01 1013.24 1013.66 1014.15 1014.60 1014.95 1015.16 1015.25 1015.27 1015.28 1015.35 1015.54 1015.86 1016.32 1016.87 1017.46 1018.03 1018.53 1018.91 1019.15 1019.27 1019.30 1019.27 1019.21
1015.70 1015.44 1015.30 1015.37 1015.70 1016.29 1017.10 1018.00 1018.84 1019.49 1019.80 1019.70 1019.16 1018.24 1017.04 1015.73 1014.49 1013.47 1012.78 1012.47 1012.53 1012.89 1013.44 1014.06 1014.64 1015.08 1015.36 1015.49 1015.51 1015.49 1015.52 1015.63 1015.88 1016.27 1016.76 1017.32 1017.88 1018.38 1018.79 1019.08 1019.27 1019.35 1019.38 1019.37
1015.74 1015.60 1015.60 1015.80 1016.25 1016.92 1017.75 1018.61 1019.35 1019.84 1019.96 1019.64 1018.89 1017.78 1016.45 1015.05 1013.77 1012.77 1012.14 1011.92 1012.09 1012.58 1013.26 1013.99 1014.66 1015.18 1015.53 1015.68 1015.71 1015.67 1015.65 1015.72 1015.90 1016.22 1016.66 1017.16 1017.70 1018.20 1018.62 1018.95 1019.18 1019.33 1019.41 1019.46
1015.70 1015.71 1015.86 1016.21 1016.76 1017.48 1018.28 1019.05 1019.65 1019.95 1019.85 1019.32 1018.39 1017.14 1015.72 1014.30 1013.04 1012.10 1011.56 1011.45 1011.74 1012.33 1013.09 1013.91 1014.65 1015.22 1015.60 1015.78 1015.82 1015.78 1015.74 1015.78 1015.92 1016.19 1016.57 1017.03 1017.52 1018.00 1018.42 1018.77 1019.04 1019.22 1019.36 1019.46
1015.51 1015.68 1015.99 1016.47 1017.09 1017.82 1018.56 1019.21 1019.63 1019.73 1019.44 1018.73 1017.67 1016.35 1014.91 1013.52 1012.35 1011.51 1011.09 1011.08 1011.46 1012.12 1012.94 1013.78 1014.55 1015.15 1015.54 1015.76 1015.82 1015.80 1015.78 1015.80 1015.93 1016.17 1016.51 1016.93 1017.38 1017.83 1018.24 1018.58 1018.86 1019.08 1019.26 1019.40
1015.16 1015.49 1015.93 1016.50 1017.16 1017.85 1018.51 1019.01 1019.26 1019.17 1018.72 1017.89 1016.76 1015.43 1014.05 1012.76 1011.72 1011.02 1010.71 1010.80 1011.24 1011.93 1012.75 1013.59 1014.34 1014.93 1015.34 1015.57 1015.67 1015.70 1015.72 1015.78 1015.93 1016.16 1016.49 1016.88 1017.29 1017.70 1018.08 1018.41 1018.69 1018.93 1019.13 1019.31
1014.73 1015.18 1015.71 1016.31 1016.96 1017.59 1018.12 1018.47 1018.55 1018.31 1017.73 1016.84 1015.72 1014.45 1013.18 1012.05 1011.16 1010.61 1010.42 1010.59 1011.05 1011.72 1012.50 1013.28 1013.98 1014.54 1014.95 1015.21 1015.37 1015.47 1015.57 1015.70 1015.90 1016.16 1016.49 1016.86 1017.24 1017.61 1017.96 1018.27 1018.54 1018.79 1019.02 1019.23
1014.30 1014.82 1015.38 1015.98 1016.56 1017.08 1017.47 1017.66 1017.59 1017.22 1016.58 1015.68 1014.61 1013.46 1012.35 1011.40 1010.68 1010.28 1010.19 1010.40 1010.84 1011.46 1012.16 1012.84 1013.46 1013.98 1014.38 1014.68 1014.91 1015.10 1015.31 1015.54 1015.82 1016.14 1016.49 1016.85 1017.22 1017.56 1017.87 1018.16 1018.42 1018.68 1018.93 1019.17
1013.99 1014.52 1015.05 1015.58 1016.05 1016.43 1016.66 1016.69 1016.48 1016.03 1015.35 1014.49 1013.51 1012.51 1011.58 1010.82 1010.28 1009.99 1009.97 1010.19 1010.59 1011.12 1011.70 1012.27 1012.80 1013.26 1013.65 1013.99 1014.30 1014.61 1014.93 1015.28 1015.66 1016.05 1016.45 1016.83 1017.18 1017.51 1017.80 1018.07 1018.33 1018.59 1018.86 1019.15
1013.86 1014.34 1014.79 1015.20 1015.53 1015.75 1015.81 1015.69 1015.36 1014.84 1014.16 1013.35 1012.49 1011.65 1010.91 1010.31 1009.92 1009.73 1009.76 1009.95 1010.28 1010.69 1011.14 1011.59 1012.02 1012.42 1012.80 1013.18 1013.58 1014.00 1014.45 1014.92 1015.41 1015.89 1016.34 1016.75 1017.11 1017.42 1017.71 1017.97 1018.23 1018.51 1018.81 1019.13
1013.91 1014.29 1014.62 1014.88 1015.04 1015.08 1014.98 1014.72 1014.30 1013.74 1013.07 1012.34 1011.60 1010.91 1010.33 1009.89 1009.60 1009.49 1009.52 1009.67 1009.91 1010.20 1010.52 1010.84 1011.17 1011.52 1011.89 1012.31 1012.78 1013.30 1013.87 1014.46 1015.05 1015.61 1016.12 1016.57 1016.95 1017.28 1017.57 1017.84 1018.12 1018.42 1018.75 1019.10
1014.06 1014.31 1014.49 1014.58 1014.57 1014.45 1014.20 1013.83 1013.34 1012.76 1012.12 1011.47 1010.85 1010.30 1009.85 1009.53 1009.34 1009.26 1009.28 1009.38 1009.52 1009.69 1009.88 1010.09 1010.34 1010.63 1010.99 1011.43 1011.96 1012.57 1013.23 1013.92 1014.60 1015.23 1015.80 1016.29 1016.71 1017.06 1017.36 1017.66 1017.96 1018.29 1018.65 1019.04
1014.19 1014.29 1014.31 1014.24 1014.07 1013.80 1013.43 1012.98 1012.46 1011.89 1011.31 1010.75 1010.24 1009.81 1009.48 1009.25 1009.11 1009.06 1009.06 1009.09 1009.15 1009.22 1009.30 1009.42 1009.59 1009.84 1010.18 1010.64 1011.20 1011.86 1012.59 1013.34 1014.09 1014.78 1015.40 1015.94 1016.39 1016.77 1017.11 1017.43 1017.77 1018.13 1018.52 1018.93
1014.18 1014.13 1013.99 1013.77 1013.47 1013.09 1012.66 1012.17 1011.65 1011.12 1010.61 1010.15 1009.75 1009.43 1009.20 1009.04 1008.95 1008.90 1008.88 1008.87 1008.85 1008.84 1008.85 1008.89 1009.00 1009.20 1009.53 1009.97 1010.55 1011.23 1011.99 1012.78 1013.56 1014.30 1014.97 1015.54 1016.04 1016.46 1016.84 1017.21 1017.57 1017.96 1018.38 1018.80
1013.94 1013.74 1013.47 1013.13 1012.73 1012.29 1011.83 1011.35 1010.87 1010.42 1010.01 1009.65 1009.36 1009.15 1009.00 1008.91 1008.85 1008.82 1008.78 1008.74 1008.68 1008.61 1008.56 1008.55 1008.62 1008.78 1009.08 1009.51 1010.07 1010.74 1011.50 1012.29 1013.09 1013.85 1014.55 1015.16 1015.70 1016.18 1016.60 1017.01 1017.41 1017.82 1018.24 1018.67
1013.45 1013.14 1012.75 1012.33 1011.88 1011.42 1010.97 1010.53 1010.14 1009.78 1009.48 1009.25 1009.07 1008.95 1008.88 1008.85 1008.83 1008.81 1008.78 1008.72 1008.64 1008.54 1008.47 1008.43 1008.46 1008.60 1008.86 1009.25 1009.78 1010.42 1011.15 1011.92 1012.72 1013.48 1014.20 1014.85 1015.43 1015.96 1016.43 1016.87 1017.30 1017.72 1018.15 1018.57
1012.78 1012.37 1011.91 1011.44 1010.97 1010.52 1010.12 1009.77 1009.47 1009.23 1009.05 1008.93 1008.86 1008.83 1008.84 1008.85 1008.87 1008.88 1008.85 1008.80 1008.72 1008.62 1008.54 1008.49 1008.51 1008.62 1008.84 1009.20 1009.67 1010.27 1010.95 1011.69 1012.46 1013.22 1013.95 1014.63 1015.26 1015.83 1016.34 1016.82 1017.27 1017.70 1018.11 1018.51
1012.06 1011.58 1011.08 1010.58 1010.12 1009.72 1009.38 1009.11 1008.92 1008.79 1008.73 1008.71 1008.73 1008.78 1008.84 1008.91 1008.96 1008.99 1008.98 1008.95 1008.89 1008.81 1008.74 1008.69 1008.71 1008.80 1008.99 1009.30 1009.72 1010.26 1010.89 1011.58 1012.31 1013.06 1013.80 1014.50 1015.16 1015.77 1016.33 1016.83 1017.30 1017.72 1018.12 1018.49
1011.43 1010.91 1010.39 1009.89 1009.46 1009.10 1008.83 1008.64 1008.54 1008.51 1008.53 1008.59 1008.68 1008.78 1008.88 1008.98 1009.05 1009.10 1009.12 1009.11 1009.08 1009.03 1008.98 1008.95 1008.97 1009.05 1009.22 1009.49 1009.86 1010.33 1010.90 1011.54 1012.24 1012.97 1013.70 1014.42 1015.10 1015.75 1016.33 1016.86 1017.34 1017.76 1018.13 1018.46
Thickness
5701 5687 5679 5685 5690 5692 5692 5688 5688 5699 5714 5712 5707 5710 5717 5724 5726 5724 5725 5728 5730 5734 5740 5745 5747 5747 5745 5744 5743 5742 5741 5739 5738 5735 5731 5728 5725 5725 5724 5724 5723 5722 5720 5718
5682 5678 5690 5696 5696 5693 5690 5684 5684 5695 5709 5707 5702 5706 5715 5721 5724 5726 5726 5727 5730 5732 5735 5740 5743 5744 5743 5742 5742 5741 5740 5739 5738 5736 5733 5730 5726 5725 5724 5723 5722 5721 5720 5718
5676 5684 5698 5696 5690 5688 5686 5683 5684 5687 5697 5702 5697 5694 5704 5716 5723 5727 5731 5732 5734 5735 5735 5737 5739 5741 5742 5741 5741 5742 5740 5739 5738 5736 5733 5729 5726 5723 5721 5721 5720 5720 5719 5717
5682 5693 5695 5690 5687 5687 5678 5692 5693 5689 5681 5676 5686 5671 5692 5706 5713 5721 5727 5730 5733 5737 5737 5738 5739 5739 5741 5741 5742 5742 5740 5739 5737 5736 5733 5728 5723 5719 5719 5720 5720 5719 5718 5717
5679 5690 5688 5685 5689 5691 5685 5694 5691 5686 5677 5672 5679 5673 5685 5702 5704 5716 5726 5731 5735 5738 5739 5739 5740 5741 5742 5743 5742 5741 5739 5738 5736 5735 5733 5729 5725 5722 5721 5720 5719 5718 5717 5717
5686 5696 5694 5692 5696 5696 5693 5686 5681 5673 5668 5661 5675 5673 5681 5699 5713 5721 5728 5734 5737 5739 5740 5741 5741 5741 5740 5741 5740 5739 5737 5736 5735 5734 5732 5730 5726 5723 5720 5719 5717 5716 5716 5716
5678 5687 5696 5698 5686 5688 5684 5665 5651 5649 5648 5656 5678 5677 5689 5718 5731 5734 5734 5736 5739 5740 5740 5738 5737 5737 5737 5737 5738 5737 5736 5734 5734 5733 5731 5730 5728 5725 5722 5720 5718 5716 5715 5714
5663 5665 5686 5693 5686 5678 5676 5668 5648 5642 5644 5656 5675 5676 5704 5732 5740 5743 5743 5741 5740 5739 5740 5740 5740 5739 5738 5737 5737 5736 5735 5734 5733 5732 5731 5730 5729 5726 5724 5722 5720 5718 5716 5715
5665 5667 5691 5696 5697 5687 5672 5664 5667 5656 5657 5654 5665 5686 5711 5731 5734 5737 5738 5738 5738 5739 5741 5741 5740 5739 5739 5737 5737 5737 5735 5733 5732 5731 5730 5729 5728 5727 5725 5723 5721 5719 5718 5717
5681 5669 5683 5694 5695 5689 5682 5673 5660 5654 5647 5648 5664 5679 5692 5712 5721 5731 5734 5736 5739 5740 5741 5741 5740 5739 5739 5739 5738 5737 5736 5734 5732 5731 5730 5729 5728 5727 5725 5723 5721 5720 5718 5717
5687 5671 5674 5683 5680 5675 5676 5671 5664 5655 5654 5649 5651 5674 5713 5718 5725 5730 5735 5739 5740 5740 5741 5741 5740 5739 5739 5738 5737 5736 5735 5733 5731 5731 5730 5728 5727 5726 5725 5723 5721 5720 5718 5717
5688 5671 5664 5675 5690 5693 5685 5679 5668 5654 5652 5655 5654 5675 5724 5726 5731 5734 5736 5739 5741 5742 5743 5742 5739 5737 5736 5735 5735 5734 5733 5732 5731 5730 5729 5727 5726 5725 5723 5722 5720 5719 5718 5716
5690 5671 5658 5662 5672 5684 5683 5683 5679 5671 5661 5655 5655 5678 5723 5726 5730 5735 5736 5737 5738 5739 5739 5738 5736 5735 5735 5735 5734 5733 5733 5732 5731 5729 5727 5725 5723 5722 5721 5720 5719 5718 5716 5715
5698 5674 5665 5660 5668 5679 5681 5685 5684 5674 5661 5660 5669 5685 5710 5721 5725 5730 5733 5735 5736 5736 5736 5735 5735 5735 5735 5735 5734 5732 5731 5731 5730 5728 5725 5723 5722 5721 5720 5719 5718 5716 5715 5713
5696 5677 5678 5681 5688 5688 5687 5688 5687 5682 5680 5674 5685 5693 5711 5722 5727 5731 5733 5734 5734 5734 5734 5734 5734 5735 5735 5734 5733 5732 5731 5730 5729 5726 5723 5722 5721 5720 5718 5717 5715 5714 5712 5711
5692 5681 5680 5681 5690 5689 5687 5692 5692 5692 5693 5691 5695 5700 5723 5730 5731 5730 5731 5732 5732 5734 5736 5736 5736 5736 5735 5735 5733 5732 5730 5729 5728 5725 5722 5721 5719 5717 5716 5714 5713 5711 5709 5707
5685 5679 5672 5669 5683 5684 5678 5696 5697 5698 5704 5701 5696 5710 5726 5726 5729 5731 5733 5735 5735 5737 5738 5738 5738 5738 5738 5737 5736 5733 5731 5728 5726 5723 5721 5719 5717 5715 5713 5712 5709 5707 5705 5703
5685 5677 5668 5666 5672 5664 5692 5715 5715 5708 5711 5715 5718 5725 5729 5733 5736 5739 5740 5738 5738 5740 5740 5741 5741 5740 5739 5739 5737 5734 5730 5727 5724 5721 5719 5717 5715 5712 5710 5708 5706 5704 5702 5700
5694 5681 5666 5661 5662 5672 5697 5713 5714 5706 5705 5719 5722 5728 5732 5736 5733 5733 5742 5744 5745 5745 5745 5745 5744 5743 5740 5738 5736 5732 5727 5724 5721 5719 5718 5716 5713 5710 5708 5705 5703 5701 5699 5697
5689 5683 5668 5660 5662 5664 5691 5716 5724 5713 5697 5719 5724 5726 5729 5728 5713 5722 5740 5744 5745 5746 5745 5744 5743 5741 5738 5737 5735 5729 5725 5722 5721 5720 5718 5716 5713 5709 5707 5704 5701 5699 5697 5694
5675 5671 5664 5660 5661 5674 5703 5717 5718 5690 5696 5721 5725 5727 5727 5724 5725 5734 5741 5743 5745 5744 5744 5743 5741 5738 5738 5737 5733 5728 5724 5723 5724 5721 5717 5714 5711 5708 5706 5702 5699 5696 5693 5690
5672 5666 5663 5659 5659 5672 5710 5714 5704 5705 5718 5723 5725 5728 5728 5728 5732 5735 5738 5739 5740 5739 5740 5739 5737 5735 5735 5735 5732 5727 5725 5726 5722 5718 5715 5711 5708 5706 5703 5698 5694 5692 5689 5685
5676 5680 5676 5675 5679 5698 5710 5713 5717 5718 5717 5721 5723 5727 5728 5728 5729 5732 5733 5734 5735 5736 5736 5735 5733 5731 5731 5731 5731 5727 5726 5723 5719 5714 5711 5708 5705 5702 5699 5695 5691 5687 5684 5681
5679 5686 5681 5679 5688 5698 5706 5711 5715 5717 5718 5721 5723 5724 5726 5724 5726 5727 5727 5728 5729 5730 5731 5731 5729 5727 5726 5727 5728 5727 5724 5720 5716 5711 5707 5704 5700 5696 5694 5691 5688 5684 5680 5677
5675 5679 5675 5675 5685 5693 5699 5704 5709 5712 5715 5717 5719 5721 5721 5721 5721 5721 5721 5722 5723 5725 5725 5726 5725 5723 5723 5723 5722 5722 5720 5716 5711 5707 5703 5700 5696 5693 5689 5686 5684 5682 5681 5679
5672 5673 5672 5672 5684 5684 5689 5699 5705 5706 5707 5710 5711 5712 5715 5716 5715 5716 5716 5717 5718 5719 5719 5719 5719 5718 5718 5718 5717 5716 5715 5713 5707 5701 5698 5695 5691 5687 5684 5680 5677 5676 5675 5674